When you browse on this site, cookies collect data to enhance your experience and personalize the content and advertising you see.
Visit our Privacy Policy to learn more. By continuing to use the site, you agree to this use of cookies and data.
  • în România
  • Lista ţărilor
  • Pe 7 zile
  • Temperatura apei
  • Hartă satelitară
  • Meteo pe hartă
  • Widget-uri
  • user-avatar
    Intrare

    Meteo pe oră la Novki

    Astăzi, 24 Martie, Duminică

    Timp Temperatura Precipitaţii Vânt Presiune Umiditate
    00:00 +1°C° 0.7 mm 3 m/s 747 mmHg 76%
    01:00 +1°C° 0.7 mm 3 m/s 746 mmHg 77%
    02:00 +1°C° 0 mm 3 m/s 745 mmHg 77%
    03:00 +1°C° 0.4 mm 3 m/s 744 mmHg 79%
    04:00 +1°C° 0.4 mm 3 m/s 744 mmHg 81%
    05:00 +1°C° 0.4 mm 3 m/s 744 mmHg 83%
    06:00 +2°C° 0 mm 3 m/s 743 mmHg 84%
    07:00 +1°C° 0 mm 4 m/s 743 mmHg 85%
    08:00 +3°C° 0 mm 4 m/s 743 mmHg 86%
    09:00 +4°C° 0 mm 4 m/s 743 mmHg 78%
    10:00 +5°C° 0 mm 5 m/s 743 mmHg 70%
    11:00 +5°C° 0 mm 5 m/s 743 mmHg 63%
    12:00 +6°C° 0.1 mm 5 m/s 743 mmHg 59%
    13:00 +6°C° 0.1 mm 5 m/s 743 mmHg 55%
    14:00 +6°C° 0.1 mm 5 m/s 743 mmHg 51%
    15:00 +6°C° 0 mm 5 m/s 743 mmHg 54%
    16:00 +5°C° 0 mm 4 m/s 743 mmHg 56%
    17:00 +4°C° 0 mm 3 m/s 743 mmHg 58%
    18:00 +4°C° 0 mm 3 m/s 743 mmHg 60%
    19:00 +3°C° 0 mm 3 m/s 743 mmHg 63%
    20:00 +2°C° 0 mm 3 m/s 743 mmHg 65%
    21:00 +2°C° 0 mm 2 m/s 743 mmHg 68%
    22:00 +1°C° 0 mm 2 m/s 743 mmHg 71%
    23:00 -1°C° 0 mm 2 m/s 743 mmHg 74%

    Mâine, 25 Martie, Luni

    Timp Temperatura Precipitaţii Vânt Presiune Umiditate
    00:00 -1°C° 0 mm 2 m/s 743 mmHg 75%
    01:00 -2°C° 0 mm 2 m/s 743 mmHg 76%
    02:00 -2°C° 0 mm 2 m/s 743 mmHg 78%
    03:00 -2°C° 0 mm 2 m/s 743 mmHg 77%
    04:00 -2°C° 0 mm 2 m/s 743 mmHg 76%
    05:00 -2°C° 0 mm 2 m/s 742 mmHg 75%
    06:00 -1°C° 0 mm 2 m/s 742 mmHg 71%
    07:00 0°C° 0 mm 3 m/s 742 mmHg 66%
    08:00 +1°C° 0 mm 3 m/s 742 mmHg 61%
    09:00 +2°C° 0 mm 3 m/s 742 mmHg 56%
    10:00 +4°C° 0 mm 3 m/s 741 mmHg 51%
    11:00 +5°C° 0 mm 4 m/s 741 mmHg 46%
    12:00 +5°C° 0 mm 4 m/s 741 mmHg 45%
    13:00 +7°C° 0 mm 3 m/s 741 mmHg 44%
    14:00 +7°C° 0 mm 3 m/s 740 mmHg 44%
    15:00 +5°C° 0 mm 3 m/s 740 mmHg 48%
    16:00 +6°C° 0 mm 2 m/s 740 mmHg 53%
    17:00 +5°C° 0 mm 2 m/s 740 mmHg 58%
    18:00 +4°C° 0 mm 2 m/s 740 mmHg 63%
    19:00 +3°C° 0 mm 2 m/s 740 mmHg 68%
    20:00 +1°C° 0 mm 2 m/s 739 mmHg 72%
    21:00 +1°C° 0 mm 2 m/s 739 mmHg 74%
    22:00 +1°C° 0 mm 2 m/s 739 mmHg 75%
    23:00 +1°C° 0 mm 2 m/s 739 mmHg 77%

    Poimâine, 26 Martie, Marţi

    Timp Temperatura Precipitaţii Vânt Presiune Umiditate
    00:00 +1°C° 0 mm 2 m/s 739 mmHg 79%
    01:00 +1°C° 0 mm 2 m/s 739 mmHg 81%
    02:00 +1°C° 0 mm 2 m/s 739 mmHg 83%
    03:00 -1°C° 0.1 mm 2 m/s 738 mmHg 85%
    04:00 -1°C° 0.1 mm 2 m/s 738 mmHg 88%
    05:00 -1°C° 0.1 mm 2 m/s 738 mmHg 90%
    06:00 -1°C° 0.6 mm 3 m/s 738 mmHg 88%
    07:00 -1°C° 0.6 mm 3 m/s 738 mmHg 86%
    08:00 -1°C° 0.6 mm 4 m/s 738 mmHg 84%
    09:00 -1°C° 0.1 mm 4 m/s 738 mmHg 78%
    10:00 -1°C° 0.1 mm 4 m/s 739 mmHg 72%
    11:00 -1°C° 0.1 mm 4 m/s 739 mmHg 66%
    12:00 0°C° 0.2 mm 4 m/s 739 mmHg 63%
    13:00 0°C° 0.2 mm 4 m/s 739 mmHg 60%
    14:00 0°C° 0.2 mm 4 m/s 739 mmHg 57%
    15:00 +1°C° 0.1 mm 3 m/s 739 mmHg 57%
    16:00 +2°C° 0.1 mm 2 m/s 739 mmHg 58%
    17:00 +2°C° 0.1 mm 1 m/s 739 mmHg 58%
    18:00 +1°C° 0 mm 1 m/s 739 mmHg 62%
    19:00 0°C° 0 mm 1 m/s 740 mmHg 66%
    20:00 -1°C° 0 mm 1 m/s 740 mmHg 71%
    21:00 -2°C° 0 mm 1 m/s 740 mmHg 71%
    22:00 -2°C° 0 mm 1 m/s 741 mmHg 71%
    23:00 -2°C° 0 mm 1 m/s 741 mmHg 72%

    27 Martie, Miercuri

    Timp Temperatura Precipitaţii Vânt Presiune Umiditate
    00:00 -2°C° 0 mm 1 m/s 742 mmHg 74%
    01:00 -4°C° 0 mm 2 m/s 742 mmHg 77%
    02:00 -5°C° 0 mm 3 m/s 743 mmHg 79%
    03:00 -5°C° 0 mm 3 m/s 743 mmHg 80%
    04:00 -5°C° 0 mm 3 m/s 744 mmHg 80%
    05:00 -7°C° 0 mm 4 m/s 744 mmHg 81%
    06:00 -5°C° 0 mm 4 m/s 745 mmHg 77%
    07:00 -5°C° 0 mm 5 m/s 745 mmHg 73%
    08:00 -5°C° 0 mm 5 m/s 746 mmHg 69%
    09:00 -4°C° 0.1 mm 5 m/s 746 mmHg 66%
    10:00 -2°C° 0.1 mm 5 m/s 747 mmHg 62%
    11:00 -2°C° 0.1 mm 5 m/s 748 mmHg 59%
    12:00 -1°C° 0 mm 5 m/s 748 mmHg 58%
    13:00 -1°C° 0 mm 5 m/s 749 mmHg 58%
    14:00 -1°C° 0 mm 5 m/s 749 mmHg 57%
    15:00 -1°C° 0 mm 5 m/s 750 mmHg 57%
    16:00 -1°C° 0 mm 4 m/s 750 mmHg 57%
    17:00 -1°C° 0 mm 4 m/s 751 mmHg 57%
    18:00 -1°C° 0 mm 3 m/s 751 mmHg 62%
    19:00 -2°C° 0 mm 3 m/s 752 mmHg 67%
    20:00 -2°C° 0 mm 2 m/s 752 mmHg 72%
    21:00 -3°C° 0 mm 2 m/s 752 mmHg 74%
    22:00 -3°C° 0 mm 2 m/s 753 mmHg 77%
    23:00 -4°C° 0 mm 2 m/s 753 mmHg 80%

    28 Martie, Joi

    Timp Temperatura Precipitaţii Vânt Presiune Umiditate
    00:00 -4°C° 0 mm 2 m/s 753 mmHg 80%
    01:00 -4°C° 0 mm 2 m/s 753 mmHg 80%
    02:00 -2°C° 0 mm 1 m/s 754 mmHg 79%
    03:00 -4°C° 0 mm 2 m/s 754 mmHg 78%
    04:00 -4°C° 0 mm 2 m/s 754 mmHg 77%
    05:00 -4°C° 0 mm 2 m/s 754 mmHg 76%
    06:00 -3°C° 0 mm 2 m/s 754 mmHg 70%
    07:00 -2°C° 0 mm 3 m/s 754 mmHg 65%
    08:00 -1°C° 0 mm 3 m/s 754 mmHg 59%
    09:00 +1°C° 0 mm 3 m/s 754 mmHg 54%
    10:00 +1°C° 0 mm 4 m/s 754 mmHg 49%
    11:00 +3°C° 0 mm 4 m/s 754 mmHg 45%
    12:00 +4°C° 0 mm 4 m/s 753 mmHg 45%
    13:00 +5°C° 0 mm 4 m/s 753 mmHg 46%
    14:00 +6°C° 0 mm 4 m/s 752 mmHg 47%
    15:00 +5°C° 0 mm 4 m/s 752 mmHg 54%
    16:00 +5°C° 0 mm 3 m/s 752 mmHg 61%
    17:00 +4°C° 0 mm 3 m/s 751 mmHg 69%
    18:00 +3°C° 0 mm 3 m/s 751 mmHg 75%
    19:00 +2°C° 0 mm 3 m/s 751 mmHg 81%
    20:00 +1°C° 0 mm 3 m/s 751 mmHg 87%
    21:00 0°C° 0 mm 4 m/s 750 mmHg 88%
    22:00 0°C° 0 mm 4 m/s 750 mmHg 88%
    23:00 0°C° 0 mm 4 m/s 749 mmHg 89%

    29 Martie, Vineri

    Timp Temperatura Precipitaţii Vânt Presiune Umiditate
    00:00 0°C° 0 mm 5 m/s 749 mmHg 89%
    01:00 0°C° 0 mm 5 m/s 748 mmHg 89%
    02:00 +1°C° 0 mm 5 m/s 747 mmHg 88%
    03:00 +1°C° 0.1 mm 5 m/s 747 mmHg 87%
    04:00 +1°C° 0.1 mm 5 m/s 747 mmHg 86%
    05:00 +1°C° 0.1 mm 6 m/s 747 mmHg 85%
    06:00 +1°C° 0.1 mm 6 m/s 747 mmHg 79%
    07:00 +1°C° 0.1 mm 6 m/s 748 mmHg 73%
    08:00 -1°C° 0.1 mm 6 m/s 748 mmHg 67%
    09:00 +1°C° 0 mm 6 m/s 749 mmHg 65%
    10:00 +2°C° 0 mm 6 m/s 749 mmHg 63%
    11:00 +2°C° 0 mm 6 m/s 750 mmHg 60%
    12:00 +3°C° 0 mm 5 m/s 750 mmHg 59%
    13:00 +5°C° 0 mm 5 m/s 750 mmHg 59%
    14:00 +5°C° 0 mm 5 m/s 751 mmHg 58%
    15:00 +5°C° 0 mm 4 m/s 751 mmHg 60%
    16:00 +5°C° 0 mm 4 m/s 751 mmHg 61%
    17:00 +5°C° 0 mm 3 m/s 752 mmHg 63%
    18:00 +3°C° 0 mm 3 m/s 752 mmHg 69%
    19:00 +3°C° 0 mm 2 m/s 752 mmHg 75%
    20:00 +2°C° 0 mm 2 m/s 752 mmHg 82%
    21:00 +1°C° 0 mm 2 m/s 753 mmHg 83%
    22:00 +2°C° 0 mm 1 m/s 753 mmHg 85%
    23:00 +1°C° 0 mm 1 m/s 753 mmHg 87%
    Arată mai mult